SP345 EPKK-EPKK

Flight info

Callsign SP345
Flight time 0h 20m
Altitude 1800
Route VFR TRAINING AT EPKK
Aircraft BE58/L-S/N

Departure

Time 2026-05-05 11:42
Airport Kraków John Paul II International Airport (EPKK)

Arrival

Time 2026-05-05 12:03
Airport Kraków John Paul II International Airport (EPKK)
Time Latitude Longitude Altitude Speed Heading
2026-05-05 11:25 50.07587 19.80004 794 ft 0 kts 202°
2026-05-05 11:36 50.07578 19.79993 794 ft 3 kts 243°
2026-05-05 11:37 50.07578 19.79971 794 ft 0 kts 286°
2026-05-05 11:37 50.07581 19.79958 794 ft 4 kts 295°
2026-05-05 11:37 50.07615 19.79942 794 ft 0 kts 14°
2026-05-05 11:38 50.07620 19.79944 794 ft 5 kts 17°
2026-05-05 11:38 50.07682 19.79977 795 ft 10 kts
2026-05-05 11:38 50.07731 19.80037 795 ft 9 kts 69°
2026-05-05 11:38 50.07744 19.80118 794 ft 9 kts 81°
2026-05-05 11:39 50.07761 19.80243 795 ft 12 kts 77°
2026-05-05 11:39 50.07782 19.80332 794 ft 7 kts 37°
2026-05-05 11:39 50.07845 19.80331 794 ft 7 kts 350°
2026-05-05 11:39 50.07849 19.80329 794 ft 0 kts 349°
2026-05-05 11:40 50.07851 19.80329 794 ft 2 kts 349°
2026-05-05 11:40 50.07909 19.80311 794 ft 14 kts 348°
2026-05-05 11:40 50.07991 19.80263 795 ft 11 kts 321°
2026-05-05 11:41 50.07999 19.80139 794 ft 12 kts 256°
2026-05-05 11:41 50.07994 19.80104 794 ft 0 kts 260°
2026-05-05 11:41 50.07983 19.80016 795 ft 37 kts 257°
2026-05-05 11:41 50.07878 19.79262 821 ft 96 kts 258°
2026-05-05 11:42 50.07727 19.78189 1070 ft 114 kts 257°
2026-05-05 11:42 50.07532 19.76917 1291 ft 126 kts 256°
2026-05-05 11:42 50.07321 19.75562 1527 ft 132 kts 256°
2026-05-05 11:42 50.07101 19.74139 1691 ft 135 kts 256°
2026-05-05 11:43 50.06878 19.72701 1789 ft 141 kts 256°
2026-05-05 11:43 50.06813 19.71140 1819 ft 153 kts 285°
2026-05-05 11:43 50.07471 19.69844 1846 ft 160 kts 329°
2026-05-05 11:43 50.08519 19.69234 1874 ft 162 kts 343°
2026-05-05 11:44 50.09615 19.68762 1809 ft 163 kts 345°
2026-05-05 11:44 50.10697 19.68320 1797 ft 159 kts 345°
2026-05-05 11:44 50.11760 19.68206 1768 ft 152 kts 15°
2026-05-05 11:44 50.12527 19.69194 1794 ft 143 kts 62°
2026-05-05 11:45 50.12832 19.70621 1822 ft 138 kts 74°
2026-05-05 11:45 50.13074 19.72038 1799 ft 129 kts 75°
2026-05-05 11:45 50.13294 19.73351 1754 ft 121 kts 75°
2026-05-05 11:45 50.13499 19.74577 1761 ft 114 kts 75°
2026-05-05 11:46 50.13695 19.75748 1770 ft 110 kts 75°
2026-05-05 11:46 50.13884 19.76878 1778 ft 106 kts 75°
2026-05-05 11:46 50.14067 19.77977 1785 ft 104 kts 75°
2026-05-05 11:46 50.14247 19.79057 1789 ft 103 kts 75°
2026-05-05 11:47 50.14426 19.80128 1795 ft 102 kts 75°
2026-05-05 11:47 50.14536 19.81104 1955 ft 85 kts 89°
2026-05-05 11:47 50.14617 19.82083 2035 ft 100 kts 76°
2026-05-05 11:47 50.14802 19.83213 2011 ft 116 kts 75°
2026-05-05 11:48 50.15218 19.85717 1836 ft 125 kts 76°
2026-05-05 11:48 50.15430 19.87016 1789 ft 122 kts 77°
2026-05-05 11:48 50.15258 19.88236 1760 ft 118 kts 129°
2026-05-05 11:49 50.14544 19.88726 1827 ft 111 kts 168°
2026-05-05 11:49 50.13787 19.89003 1824 ft 114 kts 166°
2026-05-05 11:49 50.13009 19.89294 1809 ft 116 kts 166°
2026-05-05 11:49 50.12230 19.89585 1800 ft 115 kts 166°
2026-05-05 11:50 50.11460 19.89874 1787 ft 113 kts 166°
2026-05-05 11:50 50.10705 19.90136 1788 ft 111 kts 172°
2026-05-05 11:50 50.09995 19.89772 1807 ft 107 kts 214°
2026-05-05 11:50 50.09477 19.88947 1825 ft 108 kts 233°
2026-05-05 11:51 50.09105 19.87924 1814 ft 110 kts 246°
2026-05-05 11:51 50.08860 19.86803 1794 ft 110 kts 255°
2026-05-05 11:51 50.08700 19.85615 1646 ft 113 kts 259°
2026-05-05 11:51 50.08567 19.84414 1439 ft 112 kts 260°
2026-05-05 11:52 50.08425 19.83230 1268 ft 110 kts 259°
2026-05-05 11:52 50.08271 19.82075 1120 ft 108 kts 258°
2026-05-05 11:52 50.08113 19.80942 980 ft 107 kts 258°
2026-05-05 11:52 50.07954 19.79811 848 ft 102 kts 258°
2026-05-05 11:53 50.07826 19.78895 795 ft 83 kts 258°
2026-05-05 11:53 50.07683 19.77863 903 ft 101 kts 258°
2026-05-05 11:53 50.07537 19.76794 1195 ft 106 kts 258°
2026-05-05 11:53 50.07318 19.75627 1456 ft 119 kts 249°
2026-05-05 11:54 50.07062 19.74346 1722 ft 131 kts 255°
2026-05-05 11:54 50.06821 19.72893 1858 ft 149 kts 256°
2026-05-05 11:54 50.06685 19.71218 1835 ft 163 kts 278°
2026-05-05 11:54 50.07255 19.69734 1834 ft 165 kts 321°
2026-05-05 11:55 50.08295 19.69018 1862 ft 165 kts 342°
2026-05-05 11:55 50.09410 19.68524 1818 ft 169 kts 345°
2026-05-05 11:55 50.10513 19.68071 1779 ft 160 kts 345°
2026-05-05 11:55 50.11581 19.67987 1755 ft 153 kts 17°
2026-05-05 11:56 50.12332 19.68996 1787 ft 141 kts 63°
2026-05-05 11:56 50.12624 19.70388 1811 ft 133 kts 75°
2026-05-05 11:56 50.12857 19.71758 1786 ft 130 kts 75°
2026-05-05 11:56 50.13085 19.73116 1784 ft 127 kts 75°
2026-05-05 11:57 50.13305 19.74431 1786 ft 124 kts 75°
2026-05-05 11:57 50.13518 19.75723 1789 ft 122 kts 76°
2026-05-05 11:57 50.13703 19.77003 1791 ft 120 kts 78°
2026-05-05 11:57 50.13872 19.78272 1792 ft 119 kts 78°
2026-05-05 11:58 50.14037 19.79528 1793 ft 118 kts 78°
2026-05-05 11:58 50.14200 19.80771 1795 ft 117 kts 78°
2026-05-05 11:58 50.14363 19.82007 1796 ft 116 kts 78°
2026-05-05 11:58 50.14467 19.83248 1788 ft 116 kts 97°
2026-05-05 11:59 50.14004 19.84166 1816 ft 105 kts 156°
2026-05-05 11:59 50.13340 19.84447 1799 ft 96 kts 165°
2026-05-05 11:59 50.12710 19.84719 1767 ft 92 kts 164°
2026-05-05 11:59 50.12107 19.84981 1763 ft 88 kts 164°
2026-05-05 12:00 50.11525 19.85233 1754 ft 87 kts 164°
2026-05-05 12:00 50.10946 19.85483 1653 ft 88 kts 164°
2026-05-05 12:00 50.10356 19.85739 1574 ft 89 kts 164°
2026-05-05 12:00 50.09773 19.85991 1576 ft 87 kts 164°
2026-05-05 12:01 50.09172 19.86085 1558 ft 92 kts 198°
2026-05-05 12:01 50.08785 19.85319 1545 ft 87 kts 250°
2026-05-05 12:01 50.08573 19.84378 1354 ft 102 kts 253°
2026-05-05 12:01 50.08399 19.83303 1214 ft 102 kts 258°
2026-05-05 12:02 50.08265 19.82239 1108 ft 100 kts 259°
2026-05-05 12:02 50.08134 19.81178 998 ft 100 kts 259°
2026-05-05 12:02 50.07996 19.80117 868 ft 101 kts 258°
2026-05-05 12:02 50.07862 19.79159 795 ft 75 kts 257°
2026-05-05 12:03 50.07783 19.78576 795 ft 33 kts 258°
2026-05-05 12:03 50.07744 19.78296 795 ft 20 kts 256°
2026-05-05 12:03 50.07725 19.78169 794 ft 7 kts 256°
2026-05-05 12:03 50.07687 19.78116 794 ft 10 kts 196°
2026-05-05 12:04 50.07608 19.78104 795 ft 13 kts 182°
2026-05-05 12:04 50.07516 19.78097 794 ft 7 kts 182°
2026-05-05 12:04 50.07471 19.78128 794 ft 10 kts 99°
2026-05-05 12:04 50.07483 19.78250 794 ft 13 kts 77°
2026-05-05 12:05 50.07504 19.78408 795 ft 16 kts 78°
2026-05-05 12:05 50.07530 19.78595 795 ft 19 kts 78°
2026-05-05 12:05 50.07560 19.78802 795 ft 21 kts 77°
2026-05-05 12:05 50.07587 19.78995 794 ft 15 kts 78°
2026-05-05 12:06 50.07610 19.79163 795 ft 17 kts 77°
2026-05-05 12:06 50.07630 19.79303 794 ft 10 kts 77°
2026-05-05 12:06 50.07638 19.79390 794 ft 8 kts 114°
2026-05-05 12:06 50.07620 19.79484 794 ft 11 kts 77°
2026-05-05 12:07 50.07602 19.79528 794 ft 7 kts 155°
2026-05-05 12:07 50.07592 19.79520 794 ft 0 kts 263°
2026-05-05 12:10 50.07591 19.80007 790 ft 0 kts 20°